Regional Weather Roundup
Issued by NWS Newport/Morehead, NC

Home | Current Version | Previous Version | Text Only | Print | Product List | Glossary On
Versions: 1 2 3 4 5 6 7 8 9 10 11 12 13 14 15 16 17 18 19 20 21 22 23 24 25 26 27 28 29 30 31 32 33 34 35 36 37 38 39 40 41 42 43 44 45 46 47 48 49 50
895
ASUS42 KMHX 271725
RWRMHX
WEATHER ROUNDUP FOR EASTERN NORTH CAROLINA
NATIONAL WEATHER SERVICE NEWPORT/MOREHEAD CITY NC
100 PM EDT WED JUL 27 2016

NOTE: "FAIR" INDICATES FEW OR NO CLOUDS BELOW 12,000 FEET
WITH NO SIGNIFICANT WEATHER AND/OR OBSTRUCTIONS TO VISIBILITY

NCZ015>017-031-032-045>047-102-103-271800-
NORTH COAST

CITY           SKY/WX    TMP DP  RH WIND       PRES   REMARKS
EDENTON        SUNNY     93  74  53 W5        29.97S HX 102
ELIZABETH CITY MOSUNNY   91  76  61 CALM      29.95F HX 103
KITTY HAWK     SUNNY     93  74  53 W5        29.95F HX 103
MANTEO           N/A     88  77  69 N6        29.96F HX 100

$$

NCZ045>047-081-094-103-104-271800-
CENTRAL COAST

CITY           SKY/WX    TMP DP  RH WIND       PRES   REMARKS
FRISCO         MOSUNNY   88  78  72 W7        29.97S HX 101

$$

NCZ095-097-098-100-101-271800-
SOUTHERN COAST

CITY           SKY/WX    TMP DP  RH WIND       PRES   REMARKS
BEAUFORT       SUNNY     89  79  72 SW14      29.98S HX 104
CEDAR ISLAND   NOT AVBL
JACKSONVILLE   MOSUNNY   94  75  54 W7        29.97F HX 105
PINEY ISLAND   NOT AVBL
WILMINGTON     MOSUNNY   95  76  53 W12       29.99F HX 108


$$

NCZ011>013-027>030-043-044-078>080-089-090>093-098-271800-
COASTAL PLAIN

CITY           SKY/WX    TMP DP  RH WIND       PRES   REMARKS
AHOSKIE        SUNNY     87  77  72 CALM      29.97F
CLINTON        SUNNY     94  77  56 W5        29.99F HX 108
ELIZABETHTOWN  SUNNY     95  73  49 SW9       29.99F HX 104
GOLDSBORO      MOSUNNY   93  77  60 VRB3      29.97S HX 107
GREENVILLE     MOSUNNY   95  79  59 N3        29.99S HX 112
HAVELOCK       MOSUNNY   93  77  59 SW9       29.98F HX 107
KENANSVILLE    NOT AVBL
KINSTON        SUNNY     93  75  55 SW5       29.99S HX 104
NEW BERN       SUNNY     93  76  57 NW5       29.98F HX 105
RICHLANDS      MOSUNNY   96  78  56 SW7       29.98F HX 112
ROCKY MOUNT    MOSUNNY   91  78  65 W5        29.98F HX 106
WASHINGTON     SUNNY     92  78  64 W3        29.96F HX 107
WHITEVILLE     SUNNY     93  75  55 W7        30.00S HX 105

$$

AMZ130-135-150-152-154-156-158-170-250-252-270-ANZ085-086-088-633-658-670-271800-
MARINE OBSERVATIONS

STATION/POSITION TIME  TEMP    WIND        PRES    WAVE   SWELL
                       AIR SEA DIR/SP/G            HT/PER HT/PER
                 (UTC) (F)     (DEG/KT/KT) (MB)    (FT/S) (FT/S)
CHESAPEAKE LIGHT NOT AVBL
64 E VA BEACH    1650   82 82  200/  6/  6 1013.9    3/ 6   3/ 6
DUCK             1700   85 67   70/  4/  4 1013.9
2 E DUCK         1711      78                N/A     1/ 8
OREGON INLET     1700   88 84  200/  2/  4 1014.5
13E OREGON INLT  1700      83                N/A     2/ 5   2/ 5
HATTERAS CG      1700   87 83  260/  7/ 10 1014.6
DIAMOND BUOY     1650   84 85  260/ 10/ 10 1015.0    3/ 6   3/ 6
CAPE LOOKOUT     1700   86     240/ 12/ 15 1015.0
BEAUFORT LAB     1700   88 82  220/  7/ 12 1014.6
30 SE NEW RVR IN 1708   85 85  230/ 12/ 16 1015.7
30 SE NEW RVR IN 1625      85                N/A     4/ 6
27 SE WRIGHTSVLE 1708   85 84  230/ 14/ 17 1015.9
5 SE WRIGHTSVLE  1708   84 81  210/ 10/ 14 1016.2
225 S CAPE HAT   1650   85 85  290/ 12/ 14 1017.8    4/ 5   2/ 8
41 SE CHARLESTON 1650   84 86  240/ 12/ 14 1017.4    3/ 5   2/ 8

$$




USA.gov is the U.S. government's official web portal to all federal, state and local government web resources and services.